Regional Weather Roundup
Issued by NWS Charleston, WV

Home | Current Version | Previous Version | Graphics & Text | Print | Product List | Glossary On
Versions: 1 2 3 4 5 6 7 8 9 10 11 12 13 14 15 16 17 18 19 20 21 22 23 24 25 26 27 28 29 30 31 32 33 34 35 36 37 38 39 40 41 42 43 44 45 46 47 48 49 50
000
ASUS41 KRLX 280410
RWRRLX
West Virginia Regional Weather Roundup
National Weather Service Charleston WV
1100 PM EST FRI FEB 27 2015

Note: "fair" indicates few or no clouds below 12,000 feet with no
significant weather and/or obstructions to visibility.

WVZ003-280500-
Northern Panhandle of West Virginia

CITY           SKY/WX    TMP DP  RH WIND       PRES   REMARKS
WHEELING       PTCLDY    10  -4  53 CALM      30.63R
$$

WVZ009-280500-
Northwest West Virginia

CITY           SKY/WX    TMP DP  RH WIND       PRES   REMARKS
PARKERSBURG    CLEAR     11   1  64 CALM      30.70R
$$

WVZ006-280500-
Western West Virginia

CITY           SKY/WX    TMP DP  RH WIND       PRES   REMARKS
HUNTINGTON     CLEAR     16   2  54 NE7       30.65R WCI   6
$$

WVZ015-280500-
West Central West Virginia

CITY           SKY/WX    TMP DP  RH WIND       PRES   REMARKS
CHARLESTON     CLEAR     15   6  67 CALM      30.64R
$$

WVZ022-031-280500-
North Central West Virginia

CITY           SKY/WX    TMP DP  RH WIND       PRES   REMARKS
CLARKSBURG     CLEAR     12   1  61 CALM      30.63R
MORGANTOWN     CLEAR     14  -3  47 CALM      30.64R
$$

WVZ025-035-042-045-280500-
Southern West Virginia

CITY           SKY/WX    TMP DP  RH WIND       PRES   REMARKS
BECKLEY        PTCLDY    11   2  67 N5        30.50R WCI   3
LOGAN            N/A     16   5  62 NE5       30.54S WCI   9
BLUEFIELD      PTCLDY    14   4  64 CALM      30.47R
LEWISBURG      PTCLDY    10   1  67 CALM      30.52R
$$

WVZ047-280500-
Northern Mountains of West Virginia

CITY           SKY/WX    TMP DP  RH WIND       PRES   REMARKS
ELKINS         MOCLDY    -1  -4  87 CALM      30.56R
$$

WVZ052-280500-
Eastern Panhandle of West Virginia

CITY           SKY/WX    TMP DP  RH WIND       PRES   REMARKS
MARTINSBURG    CLEAR     19   1  45 CALM      30.65R
PETERSBURG     PTCLDY    15   6  66 CALM      30.64R
$$


USA.gov is the U.S. government's official web portal to all federal, state and local government web resources and services.